{"data":{"norad_id":56384,"intl_designator":"2023-061L","name":"STARLINK-6153","alt_names":[],"object_type":"PAYLOAD","status":"ACTIVE","operator":null,"country":"US","launch_date":"2023-05-04","launch_site_code":"AFETR","launch_vehicle":null,"mission":null,"orbit_class":"UNKNOWN","rcs_meters":null,"size_class":null,"mass_kg":null,"dimensions":null,"purposes":["comms"],"wikipedia_slug":null,"has_3d_model":false,"image_url":null,"decayed_at":null,"tle_current":{"epoch":"2026-05-24T23:13:39.768960Z","epoch_age_seconds":71679,"freshness":"FRESH","line1":"1 56384U 23061L   26144.96782140  .00001006  00000+0  46085-4 0  9995","line2":"2 56384  43.0028 127.2672 0001308 265.9871  94.0831 15.27580524168416","mean_motion":15.27580524,"eccentricity":0.0001308,"inclination_deg":43.0028,"raan_deg":127.2672,"arg_perigee_deg":265.9871,"mean_anomaly_deg":94.0831,"bstar":4.6085e-5,"rev_number":16841,"period_min":94.266716377696,"perigee_km":482.15008405946,"apogee_km":483.94496993172,"semimajor_km":6861.1845269956,"source":"CELESTRAK","updated_at":"2026-05-25T13:38:18.012312Z"}}}